Weather Roundup
Issued by NWS

Home | Current Version | Previous Version | Text Only | Print | Product List | Glossary On
Versions: 1 2 3 4 5 6 7 8 9 10 11 12 13 14 15 16 17 18 19 20 21 22 23 24 25 26 27 28 29 30 31 32 33 34 35 36 37 38 39 40 41 42 43 44 45 46 47 48 49 50
000
NZUS93 KARX 280310
HRRWXR

CURRENT HOURLY OBSERVATIONS ACROSS
MUCH OF THE UPPER MISSISSIPPI VALLEY
NATIONAL WEATHER SERVICE LA CROSSE WI
1000 PM CDT SAT MAY 27 2017


...SOUTHEAST MINNESOTA...


CITY           SKY/WX    TMP DP  RH WIND       PRES   REMARKS
ROCHESTER      CLOUDY    59  53  80 S5        29.89S
ROCHESTER/MAYO CLOUDY    63  51  64 SE3       29.88R
WINONA         MOCLDY    57  55  94 CALM      29.87S
AUSTIN         CLEAR     57  50  77 CALM      29.88S
ALBERT LEA     CLEAR     59  52  77 CALM      29.88R
DODGE CENTER   CLEAR     61  46  59 CALM      29.88S
PRESTON        MOCLDY    59  49  67 CALM      29.89S
OWATONNA       CLEAR     54  48  82 SE5       29.87S
FARIBAULT      CLOUDY    57  50  77 CALM      29.87S
$$

...ELSEWHERE IN MINNESOTA...


CITY           SKY/WX    TMP DP  RH WIND       PRES   REMARKS
MINNEAPOLIS    CLOUDY    67  48  50 S6        29.84S
INTNL FALLS    CLOUDY    62  39  42 VRB5      29.72R
DULUTH         CLOUDY    64  44  48 SW9       29.79S
RED WING       CLEAR     54  46  76 CALM      29.85S
REDWOOD FALLS  CLOUDY    66  45  46 SW8       29.85S
MANKATO        CLOUDY    66  45  46 S6        29.87S
WORTHINGTON    CLOUDY    61  50  67 SW7       29.91S
FAIRMONT       CLOUDY    64  48  56 W6        29.89R
$$

...SOUTHWEST WISCONSIN...


CITY           SKY/WX    TMP DP  RH WIND       PRES   REMARKS
LA CROSSE      CLOUDY    62  57  83 CALM      29.86S
PRAIRIE DU CHI CLOUDY    62  59  91 CALM      29.85S
BOSCOBEL       CLOUDY    62  59  90 CALM      29.84S
LONE ROCK      CLOUDY    63  60  90 CALM      29.84S
PLATTEVILLE    CLOUDY    63  60  90 N3        29.85R
FORT MC COY    CLOUDY    56  55  97 CALM      29.87S
CAMP DOUGLAS   CLOUDY    59  53  79 W6        29.85F
MAUSTON-NEW LI LGT RAIN  64  52  65 NW7       29.85S
VIROQUA        CLOUDY    59  51  75 SW3       29.88R
WIS DELLS      LGT RAIN  64  54  70 W5        29.86R
$$

...ELSEWHERE IN WISCONSIN...


CITY           SKY/WX    TMP DP  RH WIND       PRES   REMARKS
MILWAUKEE      CLOUDY    65  54  67 S5        29.84S
MADISON        CLOUDY    67  56  67 NW3       29.83S
GREEN BAY      CLOUDY    64  61  90 CALM      29.80F
EAU CLAIRE     PTCLDY    60  47  61 S5        29.84F
BLACK RVR FLS  CLOUDY    58  58 100 CALM      29.86S
MEDFORD        CLOUDY    60  50  70 SW3       29.86S
WAUSAU         CLOUDY    63  51  65 W8        29.84S
WIS RAPIDS     LGT RAIN  60  54  80 W5        29.87R
MARSHFIELD     LGT RAIN  59  51  75 W7        29.85F
RICE LAKE      CLEAR     59  49  70 S5        29.86S
$$

...NORTHEAST IOWA...


CITY           SKY/WX    TMP DP  RH WIND       PRES   REMARKS
WATERLOO       CLOUDY    60  53  77 N3        29.85S
DUBUQUE        CLOUDY    61  58  90 NE6       29.84R
DECORAH        CLOUDY    61  54  77 N6        29.86F
MASON CITY     PTCLDY    57  49  74 CALM      29.89S
CHARLES CITY   CLOUDY    61  55  82 N5        29.88S
OELWEIN        CLOUDY    61  57  88 N5        29.86S
$$

...ELSEWHERE IN IOWA...


CITY           SKY/WX    TMP DP  RH WIND       PRES   REMARKS
DES MOINES     PTCLDY    62  55  77 N6        29.88R
IOWA CITY      MOCLDY    63  58  83 N8        29.85R
FORT DODGE     CLEAR     55  48  76 CALM      29.91R
MARSHALLTOWN   CLOUDY    59  56  89 N5        29.87R
CEDAR RAPIDS   PTCLDY    59  59 100 N6        29.84S
$$

...NORTHERN ILLINOIS...


CITY           SKY/WX    TMP DP  RH WIND       PRES   REMARKS
CHICAGO-OHARE  CLOUDY    65  53  65 E5        29.84R
CHICAGO-MIDWAY CLOUDY    62  53  72 E6        29.85R
MOLINE         CLOUDY    66  60  81 CALM      29.82R
ROCKFORD       CLOUDY    71  61  70 N5        29.84R
PEORIA         CLOUDY    69  64  84 NE3       29.81R
$$

NOTE: "FAIR" INDICATES FEW OR NO CLOUDS BELOW 12,000 FEET WITH NO
SIGNIFICANT WEATHER AND/OR OBSTRUCTIONS TO VISIBILITY. WIND
SPEEDS ARE IN MILES-PER-HOUR.




USA.gov is the U.S. government's official web portal to all federal, state and local government web resources and services.